Location: Brachbach
(49.1847°N, 9.7240°E)
Time: 16:45:38
(UTC+00:00)

Meteor 2-5 Rocket - Pass Details

Date: 17 August 2024
Orbit: 833 x 910 km, 81.2° (Epoch: 07 September)

Event Time Altitude Azimuth Distance (km) Brightness Sun altitude
Rises 01:41:18 0° 346° (NNW) 3,479 7.5 -20.7°
Reaches altitude 10° 01:43:44 10° 345° (NNW) 2,548 6.7 -20.4°
Maximum altitude 01:49:31 74° 262° (W) 930 3.7 -19.9°
Enters shadow 01:52:47 28° 182° (S) 1,633 4.7 -19.5°
